This demonstration page uses our WeatherBlox Daily Observations layout. Learn more.

Left ArrowRight Arrow

34.74481, -87.66753

Hourly Observations for March 4, 2018

Temp ( °F °C ) Dew Point ( °F °C ) Humidity (%) Winds ( mph kmh ) Pressure ( in mb ) Visibility ( mi km ) Precip ( " mm )
12:53 am 00:53 Clear 43 6.1 24 -4.4 47 47 Calm 30.30 1026 10 16 0.00 0.00
1:53 am 01:53 Clear 41 5 26 -3.3 55 55 Calm 30.30 1026 10 16 0.00 0.00
2:53 am 02:53 Clear 41 5 27 -2.8 57 57 ENE 3 6 30.29 1026 10 16 0.00 0.00
3:53 am 03:53 Clear 41 5 27 -2.8 57 57 ENE 3 6 30.30 1026 10 16 0.00 0.00
4:53 am 04:53 Clear 40 4.4 26 -3.3 58 58 Calm 30.30 1026 10 16 0.00 0.00
5:53 am 05:53 Clear 38 3.3 26 -3.3 62 62 Calm 30.30 1026 10 16 0.00 0.00
6:53 am 06:53 Sunny 38 3.3 30 -1.1 73 73 ENE 3 6 30.30 1026 10 16 0.00 0.00
7:53 am 07:53 Sunny 45 7.2 29 -1.7 54 54 E 5 7 30.30 1026 10 16 0.00 0.00
8:53 am 08:53 Sunny 49 9.4 28 -2.2 44 44 Calm 30.30 1026 10 16 0.00 0.00
9:53 am 09:53 Sunny 54 12.2 28 -2.2 37 37 S 3 6 30.29 1026 10 16 0.00 0.00
10:53 am 10:53 Sunny 60 15.6 29 -1.7 31 31 E 7 11 30.28 1025 10 16 0.00 0.00
11:53 am 11:53 Sunny 63 17.2 29 -1.7 28 28 ENE 5 7 30.25 1024 10 16 0.00 0.00
12:53 pm 12:53 Sunny 66 18.9 27 -2.8 23 23 E 9 15 30.21 1023 10 16 0.00 0.00
1:53 pm 13:53 Sunny 67 19.4 25 -3.9 20 20 ENE 7 11 30.18 1022 10 16 0.00 0.00
2:53 pm 14:53 Sunny 68 20 24 -4.4 19 19 ESE 6 9 30.16 1022 10 16 0.00 0.00
3:53 pm 15:53 Sunny 66 18.9 29 -1.7 25 25 SE 5 7 30.14 1021 10 16 0.00 0.00
4:53 pm 16:53 Sunny 64 17.8 35 1.7 34 34 ESE 3 6 30.15 1021 10 16 0.00 0.00
5:53 pm 17:53 Clear 60 15.6 42 5.6 52 52 ESE 5 7 30.14 1021 10 16 0.00 0.00
6:53 pm 18:53 Clear 61 16.1 30 -1.1 31 31 ENE 5 7 30.14 1021 10 16 0.00 0.00
7:53 pm 19:53 Clear 55 12.8 38 3.3 53 53 Calm 30.14 1021 10 16 0.00 0.00
8:53 pm 20:53 Mostly Clear 53 11.7 45 7.2 74 74 SE 3 6 30.14 1021 10 16 0.00 0.00
9:53 pm 21:53 Mostly Cloudy 55 12.8 39 3.9 55 55 Calm 30.13 1020 10 16 0.00 0.00
10:53 pm 22:53 Cloudy 54 12.2 43 6.1 67 67 E 5 7 30.10 1019 10 16 0.00 0.00
11:53 pm 23:53 Clear 52 11.1 37 2.8 57 57 E 5 7 30.07 1018 10 16 0.00 0.00

Powered by AerisWeather